Location: Montague
(41.3030°N, 74.7940°W)
Time: 14:37:58
(UTC-04:00)

Daily predictions for brighter satellites

Satellite Brightness Start Highest point End
(mag) Time Altitude Azimuth Time Altitude Azimuth Time Altitude Azimuth
DELTA 2 R/B (1) 3.8 21:05:56 10° W 21:11:23 60° SSW 21:16:51 10° ESE
USA 186 3.9 21:15:17 10° SW 21:16:49 16° W 21:18:24 10° NW
Cosmos 1908 3.2 21:15:09 10° N 21:19:03 71° E 21:22:57 10° SSE
Cosmos 2058 4.0 21:16:38 10° SSE 21:20:04 26° E 21:23:31 10° NNE
CZ-4 SHROUD 4.1 21:18:54 10° SE 21:21:46 34° ENE 21:24:39 10° N
Cosmos 1151 Rocket 3.0 21:18:41 10° N 21:22:59 69° E 21:27:18 10° SSE
Cosmos 2266 Rocket 4.0 21:19:04 10° S 21:25:20 74° E 21:31:32 10° N
Cosmos 1674 2.7 21:23:32 10° S 21:27:22 83° E 21:31:15 10° N
Cosmos 405 3.0 21:23:54 10° N 21:27:33 84° E 21:31:10 10° S
ALOS 4.3 21:25:20 10° SSW 21:29:17 27° W 21:33:15 10° NW
Cosmos 2315 Rocket 4.3 21:24:53 10° N 21:30:57 53° ENE 21:36:59 10° SSE
H-2A R/B 3.9 21:28:10 10° E 21:31:34 17° ENE 21:35:01 10° NNE
CZ-4B R/B 4.2 21:27:03 10° NNE 21:31:51 35° E 21:36:33 10° SSE
Cosmos 2227 Rocket 3.9 21:29:46 10° ESE 21:32:03 13° E 21:34:31 10° ENE
Cosmos 1805 Rocket 4.2 21:29:50 10° SSE 21:33:57 38° E 21:38:04 10° NNE
Cosmos 1680 Rocket 3.5 21:28:43 10° NNW 21:33:59 79° ENE 21:39:11 10° SSE
H-2A R/B 4.5 21:33:49 10° S 21:37:24 20° SE 21:46:51 10° E
Cosmos 923 Rocket 4.2 21:33:21 10° NNW 21:38:33 73° WSW 21:43:43 10° S
Cosmos 1300 3.5 21:36:32 10° N 21:40:07 35° ENE 21:42:49 15° SE
YAOGAN 6 3.2 21:38:15 14° SE 21:41:07 42° ENE 21:44:33 10° N
USA 229 DEB 4.4 21:34:37 10° SW 21:41:28 61° NW 21:48:26 10° NNE
USA 229 4.4 21:34:43 10° SW 21:41:34 62° NW 21:48:32 10° NNE
Tiangong 1 1.7 21:39:11 10° SW 21:42:02 33° SSE 21:44:52 10° E
SPOT 1/Viking Rocket 4.0 21:39:09 13° SE 21:43:30 46° ENE 21:48:25 10° N
Cosmos 2333 Rocket 3.7 21:40:12 10° N 21:44:48 24° NE 21:49:17 10° ESE
Cosmos 1898 Rocket 4.1 21:42:21 10° SSE 21:47:04 37° ESE 21:51:50 10° NE
Cosmos 1939 Rocket 3.8 21:46:36 10° S 21:50:23 45° W 21:54:08 10° NNW
H-2A R/B 3.1 21:46:24 10° S 21:50:45 47° W 21:55:09 10° NNW
Cosmos 1707 Rocket 3.8 21:48:18 10° N 21:52:35 53° E 21:55:46 17° SSE
Cosmos 1437 Rocket 4.4 21:49:26 10° NNW 21:52:51 31° W 21:56:17 10° SSW
Cosmos 2150 Rocket 4.4 21:49:07 10° S 21:54:15 46° ESE 21:59:28 10° NNE
Cosmos 1666 Rocket 3.8 21:52:49 14° SSE 21:56:27 49° E 22:00:44 10° NNE
MetOp-A 4.1 21:51:55 12° SSE 21:56:56 89° ENE 22:02:20 10° NNW
COSMOS 2428 2.8 21:51:17 10° NNW 21:56:59 70° ENE 22:01:17 18° SE
SPOT 5 3.0 21:53:21 10° S 21:57:49 70° WSW 22:02:38 10° NNW
Cosmos 2297 Rocket 3.8 21:57:44 14° ESE 21:58:59 15° E 22:02:11 10° ENE
NOSS 3-1 (A) 3.5 21:55:13 10° SSW 22:00:54 55° ESE 22:07:10 10° NE
BREEZE-M DEB (TANK) 4.2 22:00:33 10° NNW 22:02:03 17° NNE 22:03:49 10° ENE
Cosmos 1455 4.1 22:00:09 10° NNE 22:02:31 16° ENE 22:03:46 14° E
PSLV R/B 3.8 22:00:36 14° S 22:03:02 50° W 22:06:02 10° NNW
ARGOS 3.3 21:59:31 17° SSE 22:03:35 60° ENE 22:08:54 10° N
Cosmos 2219 Rocket 2.9 21:59:55 10° N 22:05:12 41° ENE 22:08:52 19° ESE
NOSS 0 Rocket 4.4 22:11:29 10° NNW 22:17:26 49° ENE 22:21:19 21° SE
Cosmos 2237 4.3 22:12:49 10° NNW 22:18:34 75° WSW 22:22:30 21° SSE
Cosmos 1726 2.1 22:17:37 10° N 22:21:26 88° W 22:23:25 27° S
ATLAS 2AS CENTAUR R/B 3.5 22:18:20 17° SSE 22:23:24 36° ESE 22:30:28 10° NE
Cosmos 1980 4.4 22:18:47 10° NNW 22:24:09 42° ENE 22:27:20 22° ESE
CZ-4C R/B 3.3 22:24:04 34° SE 22:25:14 52° ENE 22:28:38 10° N
USA 32 4.0 22:20:49 10° N 22:26:05 69° E 22:29:09 25° SSE
Cosmos 292 Rocket 3.8 22:23:40 10° NNW 22:28:26 71° ENE 22:30:47 30° SSE
Landsat 7 3.9 22:27:03 28° SE 22:29:30 63° ENE 22:34:13 10° N
Cosmos 2219 4.0 22:24:04 10° SW 22:29:40 53° WNW 22:35:18 10° NNE
ERBS 3.5 22:32:03 27° E 22:32:03 27° E 22:34:08 10° ENE
Delta 2 Rocket 3.8 22:29:03 10° WSW 22:31:52 29° SSW 22:31:52 29° SSW
Cosmos 2237 Rocket 2.7 22:31:15 10° NNW 22:36:49 49° ENE 22:39:42 26° ESE
Cosmos 2333 4.3 22:31:12 10° NNW 22:36:55 72° WSW 22:40:15 26° S
Cosmos 1271 Rocket 2.6 22:34:47 10° N 22:38:39 87° W 22:40:05 37° S
ATLAS 3B R/B 3.8 22:32:41 10° NNW 22:39:07 35° NE 22:44:01 15° ESE
Meteor 2-10 4.2 22:34:16 10° N 22:40:00 78° E 22:43:05 29° SSE
Cosmos 2082 3.9 22:38:00 25° S 22:41:02 50° ESE 22:46:33 10° NE
Cosmos 1703 3.2 22:41:15 31° S 22:43:02 86° W 22:46:58 10° N
SL-14 R/B 4.3 22:40:06 13° SSW 22:43:20 45° WNW 22:47:12 10° N
Meteor 1-4 Rocket 2.8 22:40:27 10° NNW 22:44:11 65° W 22:45:29 37° SSW
Cosmos 2242 Rocket 3.8 22:40:03 10° NNW 22:44:31 70° W 22:46:44 29° S
Cosmos 1346 3.4 22:45:04 50° ENE 22:45:04 50° ENE 22:47:49 10° NNE
Terra 1.9 22:43:25 34° SE 22:45:22 63° ENE 22:50:05 10° N
Cosmos 1937 Rocket 3.4 22:41:23 15° SSW 22:45:50 88° WNW 22:51:04 10° NNE
NOSS 3-1 (C) 4.1 22:41:48 10° SW 22:47:36 57° NW 22:54:05 10° NNE
Cosmos 2360 Rocket 4.1 22:43:36 10° NW 22:47:45 21° W 22:51:53 10° SSW
Iridium 2 3.7 22:47:14 38° S 22:48:37 84° W 22:52:29 10° N
Spot 4 4.2 22:47:25 34° SE 22:49:15 54° ENE 22:54:01 10° N
Cosmos 1862 Rocket 3.6 22:47:03 10° N 22:51:22 61° E 22:52:33 43° SE
Lacrosse 4 Rocket 3.3 22:47:59 10° N 22:51:28 22° NE 22:53:24 17° E
Sich 1 4.1 22:48:46 13° SSW 22:52:26 44° WNW 22:56:40 10° N
CARTOSAT-1 3.5 22:51:07 42° SSE 22:52:33 79° ENE 22:56:53 10° N
FALCON 9 R/B 3.9 22:29:18 10° W 22:55:31 62° S 23:00:30 23° ESE
Cosmos 1633 Rocket 4.1 22:52:39 14° SSW 22:56:08 42° WNW 23:00:19 10° N
Cosmos 990 Rocket 3.8 22:53:45 26° SSW 22:56:43 82° ESE 23:01:54 10° NNE
Cosmos 1626 2.0 23:01:03 61° SSE 23:01:38 80° E 23:05:24 10° N
OAO 2 Rocket 3.8 22:58:14 10° WSW 23:03:12 40° S 23:03:20 40° SSE
COSMOS 2455 3.5 23:01:36 10° NNW 23:07:24 46° NE 23:10:13 28° ESE
H-2A R/B 2.3 23:08:02 34° S 23:10:22 68° WSW 23:15:48 10° NNW
Cosmos 2227 Rocket 2.2 23:11:30 22° SSW 23:15:16 83° WNW 23:21:00 10° NNE
Tiangong 1 2.5 23:15:24 10° W 23:17:13 32° W 23:17:13 32° W
Cosmos 1933 3.7 23:14:47 10° N 23:18:45 49° E 23:18:58 48° E
Cosmos 1869 Rocket 4.3 23:19:15 38° E 23:19:23 38° E 23:23:32 10° NNE
Cosmos 2333 Rocket 2.6 23:23:49 10° NNW 23:29:26 55° WSW 23:31:18 39° SSW
Cosmos 192 4.3 23:24:52 10° NNW 23:29:47 73° WSW 23:30:50 54° S
IGS 5A 4.2 23:29:10 39° SW 23:29:58 44° W 23:33:59 10° NNW
Cosmos 389 Rocket 4.0 23:27:04 10° NNE 23:29:47 28° ENE 23:29:47 28° ENE
SL-16 R/B 2.5 23:24:38 10° NNW 23:30:16 59° ENE 23:32:01 41° ESE
SeaSat 1 3.3 23:29:32 32° E 23:31:05 41° ENE 23:35:43 10° NNW
ALOS 2 4.2 23:31:51 21° E 23:32:34 22° ENE 23:35:56 10° NNE
Cosmos 1125 Rocket 3.4 23:33:30 51° S 23:34:50 77° ESE 23:40:10 10° NNE
Cosmos 1048 Rocket 4.2 23:30:42 10° NNW 23:36:02 64° ENE 23:37:19 48° SE
CZ-4B R/B 3.8 23:36:58 15° ENE 23:36:58 15° ENE 23:38:43 10° NNE
Cosmos 1455 3.4 23:34:55 10° NNW 23:38:22 32° W 23:38:49 31° WSW
Cosmos 2297 Rocket 2.3 23:39:29 30° SW 23:42:21 72° WNW 23:48:01 10° NNE
Okean 1-7 3.2 23:41:14 10° N 23:45:27 56° E 23:45:28 56° E
NOSS 2-3 (D) 4.1 23:46:30 53° ESE 23:46:30 53° ESE 23:51:49 10° NE
Cosmos 2219 Rocket 3.5 23:44:15 10° NW 23:48:56 28° WSW 23:50:35 24° SW
Cosmos 1703 Rocket 3.5 23:48:00 10° NNW 23:52:22 73° W 23:52:36 71° SW
